Year,Month,Day,Hour,Minute,Value (Times are PST for temperature in C)
2009,07,29,10,11,30.20
2009,07,29,10,12,30.20
2009,07,29,10,13,30.10
2009,07,29,10,14,30.00
2009,07,29,10,15,29.90
2009,07,29,10,16,29.90
2009,07,29,10,17,29.80
2009,07,29,10,18,29.80
2009,07,29,10,19,29.70
2009,07,29,10,20,29.80
2009,07,29,10,21,29.80
2009,07,29,10,22,29.90
2009,07,29,10,23,29.90
2009,07,29,10,24,29.90
2009,07,29,10,25,29.90
2009,07,29,10,26,29.80
2009,07,29,10,27,29.80
2009,07,29,10,28,29.80
2009,07,29,10,29,29.90
2009,07,29,10,30,30.00
2009,07,29,10,31,30.10
2009,07,29,10,32,30.30
2009,07,29,10,33,30.40
2009,07,29,10,34,30.40
2009,07,29,10,35,30.40
2009,07,29,10,36,30.40
2009,07,29,10,37,30.40
2009,07,29,10,38,30.50
2009,07,29,10,39,30.60
2009,07,29,10,40,30.60
2009,07,29,10,41,30.70
2009,07,29,10,42,30.80
2009,07,29,10,43,30.80
2009,07,29,10,44,30.70
2009,07,29,10,45,30.70
2009,07,29,10,46,30.70
2009,07,29,10,47,30.80
2009,07,29,10,48,30.90
2009,07,29,10,49,31.00
2009,07,29,10,50,31.10
2009,07,29,10,51,31.10
2009,07,29,10,52,31.10
2009,07,29,10,53,31.20
2009,07,29,10,54,31.20
2009,07,29,10,55,31.20
2009,07,29,10,56,31.20
2009,07,29,10,57,31.10
2009,07,29,10,58,31.00
2009,07,29,10,59,30.90
2009,07,29,11,00,30.80
2009,07,29,11,01,30.80
2009,07,29,11,02,30.80
2009,07,29,11,03,30.90
2009,07,29,11,04,31.00
2009,07,29,11,05,31.10
2009,07,29,11,06,31.20
2009,07,29,11,07,31.30
2009,07,29,11,08,31.20
2009,07,29,11,09,31.20
2009,07,29,11,10,31.20
2009,07,29,11,11,31.10
2009,07,29,11,12,31.00
2009,07,29,11,13,30.90
2009,07,29,11,14,30.90
2009,07,29,11,15,30.90
2009,07,29,11,16,30.90
2009,07,29,11,17,30.80
2009,07,29,11,18,30.90
2009,07,29,11,19,30.90
2009,07,29,11,20,31.00
2009,07,29,11,21,31.10
2009,07,29,11,22,31.20
2009,07,29,11,23,31.30
2009,07,29,11,24,31.30
2009,07,29,11,25,31.30
2009,07,29,11,26,31.30
2009,07,29,11,27,31.30
2009,07,29,11,28,31.30
2009,07,29,11,29,31.20
2009,07,29,11,30,31.20
2009,07,29,11,31,31.10
2009,07,29,11,32,31.00
2009,07,29,11,33,31.00
2009,07,29,11,34,31.00
2009,07,29,11,35,31.00
2009,07,29,11,36,31.10
2009,07,29,11,37,31.10
2009,07,29,11,38,31.10
2009,07,29,11,39,31.10
2009,07,29,11,40,31.10
2009,07,29,11,41,31.10
2009,07,29,11,42,31.20
2009,07,29,11,43,31.30
2009,07,29,11,44,31.30
2009,07,29,11,45,31.30
2009,07,29,11,46,31.30
2009,07,29,11,47,31.30
2009,07,29,11,48,31.30
2009,07,29,11,49,31.30
2009,07,29,11,50,31.40
2009,07,29,11,51,31.40
2009,07,29,11,52,31.40
2009,07,29,11,53,31.40
2009,07,29,11,54,31.50
2009,07,29,11,55,31.50
2009,07,29,11,56,31.60
2009,07,29,11,57,31.70
2009,07,29,11,58,31.70
2009,07,29,11,59,31.80
2009,07,29,12,00,31.90
2009,07,29,12,01,31.80
2009,07,29,12,02,31.80
2009,07,29,12,03,31.80
2009,07,29,12,04,31.90
2009,07,29,12,05,31.90
2009,07,29,12,06,31.90
2009,07,29,12,07,31.90
2009,07,29,12,08,31.80
2009,07,29,12,09,31.80
2009,07,29,12,10,31.70
2009,07,29,12,11,31.60
2009,07,29,12,12,31.60
2009,07,29,12,13,31.60
2009,07,29,12,14,31.70
2009,07,29,12,15,31.70
2009,07,29,12,16,31.70
2009,07,29,12,17,31.70
2009,07,29,12,18,31.70
2009,07,29,12,19,31.70
2009,07,29,12,20,31.60
2009,07,29,12,21,31.50
2009,07,29,12,22,31.40
2009,07,29,12,23,31.30
2009,07,29,12,24,31.30
2009,07,29,12,25,31.30
2009,07,29,12,26,31.40
2009,07,29,12,27,31.40
2009,07,29,12,28,31.60
2009,07,29,12,29,31.70
2009,07,29,12,30,31.80
2009,07,29,12,31,31.80
2009,07,29,12,32,31.90
2009,07,29,12,33,31.90
2009,07,29,12,34,31.90
2009,07,29,12,35,32.00
2009,07,29,12,36,32.10
2009,07,29,12,37,32.10
2009,07,29,12,38,32.10
2009,07,29,12,39,32.10
2009,07,29,12,40,32.00
2009,07,29,12,41,31.90
2009,07,29,12,42,31.90
2009,07,29,12,43,31.90
2009,07,29,12,44,32.00
2009,07,29,12,45,32.10
2009,07,29,12,46,32.00
2009,07,29,12,47,31.80
2009,07,29,12,48,31.80
2009,07,29,12,49,31.70
2009,07,29,12,50,31.70
2009,07,29,12,51,31.70
2009,07,29,12,52,31.70
2009,07,29,12,53,31.60
2009,07,29,12,54,31.60
2009,07,29,12,55,31.60
2009,07,29,12,56,31.70
2009,07,29,12,57,31.70
2009,07,29,12,58,31.70
2009,07,29,12,59,31.70
2009,07,29,13,00,31.60
2009,07,29,13,01,31.60
2009,07,29,13,02,31.70
2009,07,29,13,03,31.80
2009,07,29,13,04,31.80
2009,07,29,13,05,31.80
2009,07,29,13,06,31.90
2009,07,29,13,07,32.00
2009,07,29,13,08,32.10
2009,07,29,13,09,32.00
2009,07,29,13,10,31.90
2009,07,29,13,11,31.80
2009,07,29,13,12,31.70
2009,07,29,13,13,31.70
2009,07,29,13,14,31.70
2009,07,29,13,15,31.70
2009,07,29,13,16,31.70
2009,07,29,13,17,31.70
2009,07,29,13,18,31.60
2009,07,29,13,19,31.60
2009,07,29,13,20,31.60
2009,07,29,13,21,31.60
2009,07,29,13,22,31.70
2009,07,29,13,23,31.90
2009,07,29,13,24,32.00
2009,07,29,13,25,32.10
2009,07,29,13,26,32.00
2009,07,29,13,27,32.00
2009,07,29,13,28,32.00
2009,07,29,13,29,32.10
2009,07,29,13,30,32.10
2009,07,29,13,31,32.20
2009,07,29,13,32,32.30
2009,07,29,13,33,32.50
2009,07,29,13,34,32.60
2009,07,29,13,35,32.70
2009,07,29,13,36,32.70
2009,07,29,13,37,32.80
2009,07,29,13,38,32.80
2009,07,29,13,39,32.80
2009,07,29,13,40,32.80
2009,07,29,13,41,32.80
2009,07,29,13,42,32.80
2009,07,29,13,43,32.70
2009,07,29,13,44,32.60
2009,07,29,13,45,32.40
2009,07,29,13,46,32.30
2009,07,29,13,47,32.20
2009,07,29,13,48,32.20
2009,07,29,13,49,32.20
2009,07,29,13,50,32.30
2009,07,29,13,51,32.30
2009,07,29,13,52,32.30
2009,07,29,13,53,32.30
2009,07,29,13,54,32.30
2009,07,29,13,55,32.20
2009,07,29,13,56,32.20
2009,07,29,13,57,32.20
2009,07,29,13,58,32.10
2009,07,29,13,59,32.10
2009,07,29,14,00,32.10
2009,07,29,14,01,32.10
2009,07,29,14,02,32.10
2009,07,29,14,03,32.30
2009,07,29,14,04,32.40
2009,07,29,14,05,32.60
2009,07,29,14,06,32.80
2009,07,29,14,07,32.80
2009,07,29,14,08,32.90
2009,07,29,14,09,32.80
2009,07,29,14,10,32.80
2009,07,29,14,11,32.80
2009,07,29,14,12,32.90
2009,07,29,14,13,33.00
2009,07,29,14,14,33.00
2009,07,29,14,15,33.10
2009,07,29,14,16,33.00
2009,07,29,14,17,33.10
2009,07,29,14,18,33.10
2009,07,29,14,19,33.10
2009,07,29,14,20,33.00
2009,07,29,14,21,32.90
2009,07,29,14,22,32.80
2009,07,29,14,23,32.60
2009,07,29,14,24,32.40
2009,07,29,14,25,32.30
2009,07,29,14,26,32.20
2009,07,29,14,27,32.10
2009,07,29,14,28,32.10
2009,07,29,14,29,32.10
2009,07,29,14,30,32.20
2009,07,29,14,31,32.30
2009,07,29,14,32,32.30
2009,07,29,14,33,32.40
2009,07,29,14,34,32.40
2009,07,29,14,35,32.40
2009,07,29,14,36,32.30
2009,07,29,14,37,32.20
2009,07,29,14,38,32.20
2009,07,29,14,39,32.10
2009,07,29,14,40,32.10
2009,07,29,14,41,32.20
2009,07,29,14,42,32.20
2009,07,29,14,43,32.20
2009,07,29,14,44,32.20
2009,07,29,14,45,32.20
2009,07,29,14,46,32.30
2009,07,29,14,47,32.30
2009,07,29,14,48,32.30
2009,07,29,14,49,32.30
2009,07,29,14,50,32.30
2009,07,29,14,51,32.40
2009,07,29,14,52,32.40
2009,07,29,14,53,32.30
2009,07,29,14,54,32.40
2009,07,29,14,55,32.40
2009,07,29,14,56,32.40
2009,07,29,14,57,32.50
2009,07,29,14,58,32.60
2009,07,29,14,59,32.50
2009,07,29,15,00,32.40
2009,07,29,15,01,32.40
2009,07,29,15,02,32.40
2009,07,29,15,03,32.40
2009,07,29,15,04,32.40
2009,07,29,15,05,32.30
2009,07,29,15,06,32.40
2009,07,29,15,07,32.40
2009,07,29,15,08,32.50
2009,07,29,15,09,32.60
2009,07,29,15,10,32.70
2009,07,29,15,11,32.80
2009,07,29,15,12,32.80
2009,07,29,15,13,32.80
2009,07,29,15,14,32.70
2009,07,29,15,15,32.70
2009,07,29,15,16,32.70
2009,07,29,15,17,32.70
2009,07,29,15,18,32.80
2009,07,29,15,19,32.80
2009,07,29,15,20,32.90
2009,07,29,15,21,32.90
2009,07,29,15,22,33.00
2009,07,29,15,23,33.10
2009,07,29,15,24,33.20
2009,07,29,15,25,33.20
2009,07,29,15,26,33.30
2009,07,29,15,27,33.30
2009,07,29,15,28,33.30
2009,07,29,15,29,33.40
2009,07,29,15,30,33.40
2009,07,29,15,31,33.40
2009,07,29,15,32,33.30
2009,07,29,15,33,33.30
2009,07,29,15,34,33.30
2009,07,29,15,35,33.40
2009,07,29,15,36,33.40
2009,07,29,15,37,33.40
2009,07,29,15,38,33.30
2009,07,29,15,39,33.30
2009,07,29,15,40,33.20
2009,07,29,15,41,33.20
2009,07,29,15,42,33.10
2009,07,29,15,43,33.00
2009,07,29,15,44,33.00
2009,07,29,15,45,32.90
2009,07,29,15,46,33.00
2009,07,29,15,47,33.10
2009,07,29,15,48,33.10
2009,07,29,15,49,33.20
2009,07,29,15,50,33.20
2009,07,29,15,51,33.30
2009,07,29,15,52,33.50
2009,07,29,15,53,33.50
2009,07,29,15,54,33.60
2009,07,29,15,55,33.50
2009,07,29,15,56,33.50
2009,07,29,15,57,33.50
2009,07,29,15,58,33.50
2009,07,29,15,59,33.50
2009,07,29,16,00,33.60
2009,07,29,16,01,33.60
2009,07,29,16,02,33.60
2009,07,29,16,03,33.60
2009,07,29,16,04,33.60
2009,07,29,16,05,33.70
2009,07,29,16,06,33.80
2009,07,29,16,07,33.90
2009,07,29,16,08,34.00
2009,07,29,16,09,34.10
2009,07,29,16,10,34.20
2009,07,29,16,11,34.20
2009,07,29,16,12,34.10
2009,07,29,16,13,34.10
2009,07,29,16,14,34.10
2009,07,29,16,15,34.10
2009,07,29,16,16,34.10
2009,07,29,16,17,34.10
2009,07,29,16,18,34.10
2009,07,29,16,19,34.10
2009,07,29,16,20,34.20
2009,07,29,16,21,34.20
2009,07,29,16,22,34.30
2009,07,29,16,23,34.30
2009,07,29,16,24,34.30
2009,07,29,16,25,34.30
2009,07,29,16,26,34.40
2009,07,29,16,27,34.40
2009,07,29,16,28,34.40
2009,07,29,16,29,34.30
2009,07,29,16,30,34.30
2009,07,29,16,31,34.30
2009,07,29,16,32,34.30
2009,07,29,16,33,34.30
2009,07,29,16,34,34.30
2009,07,29,16,35,34.30
2009,07,29,16,36,34.20
2009,07,29,16,37,34.00
2009,07,29,16,38,34.00
2009,07,29,16,39,33.90
2009,07,29,16,40,33.80
2009,07,29,16,41,33.70
2009,07,29,16,42,33.70
2009,07,29,16,43,33.60
2009,07,29,16,44,33.50
2009,07,29,16,45,33.50
2009,07,29,16,46,33.50
2009,07,29,16,47,33.50
2009,07,29,16,48,33.60
2009,07,29,16,49,33.70
2009,07,29,16,50,33.70
2009,07,29,16,51,33.80
2009,07,29,16,52,33.90
2009,07,29,16,53,34.00
2009,07,29,16,54,34.10
2009,07,29,16,55,34.20
2009,07,29,16,56,34.20
2009,07,29,16,57,34.20
2009,07,29,16,58,34.30
2009,07,29,16,59,34.30
2009,07,29,17,00,34.30
2009,07,29,17,01,34.30
2009,07,29,17,02,34.30
2009,07,29,17,03,34.40
2009,07,29,17,04,34.40
2009,07,29,17,05,34.40
2009,07,29,17,06,34.40
2009,07,29,17,07,34.40
2009,07,29,17,08,34.40
2009,07,29,17,09,34.40
2009,07,29,17,10,34.40
2009,07,29,17,11,34.50
2009,07,29,17,12,34.40
2009,07,29,17,13,34.30
2009,07,29,17,14,34.20
2009,07,29,17,15,34.10
2009,07,29,17,16,34.10
2009,07,29,17,17,34.10
2009,07,29,17,18,34.00
2009,07,29,17,19,34.00
2009,07,29,17,20,33.90
2009,07,29,17,21,33.90
2009,07,29,17,22,33.90
2009,07,29,17,23,33.90
2009,07,29,17,24,34.00
2009,07,29,17,25,34.00
2009,07,29,17,26,34.00
2009,07,29,17,27,34.00
2009,07,29,17,28,34.00
2009,07,29,17,29,34.00
2009,07,29,17,30,33.90
2009,07,29,17,31,33.90
2009,07,29,17,32,33.90
2009,07,29,17,33,33.90
2009,07,29,17,34,33.90
2009,07,29,17,35,33.90
2009,07,29,17,36,33.90
2009,07,29,17,37,33.80
2009,07,29,17,38,33.80
2009,07,29,17,39,33.80
2009,07,29,17,40,33.80
2009,07,29,17,41,33.80
2009,07,29,17,42,33.90
2009,07,29,17,43,33.90
2009,07,29,17,44,33.90
2009,07,29,17,45,34.00
2009,07,29,17,46,34.00
2009,07,29,17,47,33.90
2009,07,29,17,48,33.90
2009,07,29,17,49,33.90
2009,07,29,17,50,33.90
2009,07,29,17,51,33.90
2009,07,29,17,52,33.90
2009,07,29,17,53,34.00
2009,07,29,17,54,34.10
2009,07,29,17,55,34.10
2009,07,29,17,56,34.00
2009,07,29,17,57,34.00
2009,07,29,17,58,33.90
2009,07,29,17,59,33.80
2009,07,29,18,00,33.80
2009,07,29,18,01,33.90
2009,07,29,18,02,33.90
2009,07,29,18,03,34.00
2009,07,29,18,04,34.00
2009,07,29,18,05,34.00
2009,07,29,18,06,34.10
2009,07,29,18,07,34.10
2009,07,29,18,08,34.20
2009,07,29,18,09,34.20
2009,07,29,18,10,34.30
2009,07,29,18,11,34.30
2009,07,29,18,12,34.30
2009,07,29,18,13,34.30
2009,07,29,18,14,34.30
2009,07,29,18,15,34.30
2009,07,29,18,16,34.30
2009,07,29,18,17,34.30
2009,07,29,18,18,34.30
2009,07,29,18,19,34.30
2009,07,29,18,20,34.40
2009,07,29,18,21,34.40
2009,07,29,18,22,34.40
2009,07,29,18,23,34.40
2009,07,29,18,24,34.40
2009,07,29,18,25,34.30
2009,07,29,18,26,34.20
2009,07,29,18,27,34.10
2009,07,29,18,28,34.10
2009,07,29,18,29,34.00
2009,07,29,18,30,34.00
2009,07,29,18,31,34.00
2009,07,29,18,32,34.00
2009,07,29,18,33,34.00
2009,07,29,18,34,34.00
2009,07,29,18,35,34.00
2009,07,29,18,36,33.90
2009,07,29,18,37,33.90
2009,07,29,18,38,33.90
2009,07,29,18,39,33.90
2009,07,29,18,40,33.90
2009,07,29,18,41,33.80
2009,07,29,18,42,33.70
2009,07,29,18,43,33.60
2009,07,29,18,44,33.60
2009,07,29,18,45,33.60
2009,07,29,18,46,33.50
2009,07,29,18,47,33.50
2009,07,29,18,48,33.50
2009,07,29,18,49,33.50
2009,07,29,18,50,33.50
2009,07,29,18,51,33.50
2009,07,29,18,52,33.50
2009,07,29,18,53,33.50
2009,07,29,18,54,33.60
2009,07,29,18,55,33.60
2009,07,29,18,56,33.50
2009,07,29,18,57,33.40
2009,07,29,18,58,33.30
2009,07,29,18,59,33.20
2009,07,29,19,00,33.00
2009,07,29,19,01,32.90
2009,07,29,19,02,32.80
2009,07,29,19,03,32.70
2009,07,29,19,04,32.60
2009,07,29,19,05,32.60
2009,07,29,19,06,32.50
2009,07,29,19,07,32.50
2009,07,29,19,08,32.40
2009,07,29,19,09,32.40
2009,07,29,19,10,32.40
2009,07,29,19,11,32.40
2009,07,29,19,12,32.50
2009,07,29,19,13,32.50
2009,07,29,19,14,32.50
2009,07,29,19,15,32.60
2009,07,29,19,16,32.60
2009,07,29,19,17,32.60
2009,07,29,19,18,32.60
2009,07,29,19,19,32.70
2009,07,29,19,20,32.70
2009,07,29,19,21,32.70
2009,07,29,19,22,32.70
2009,07,29,19,23,32.70
2009,07,29,19,24,32.60
2009,07,29,19,25,32.60
2009,07,29,19,26,32.60
2009,07,29,19,27,32.60
2009,07,29,19,28,32.50
2009,07,29,19,29,32.50
2009,07,29,19,30,32.40
2009,07,29,19,31,32.40
2009,07,29,19,32,32.30
2009,07,29,19,33,32.30
2009,07,29,19,34,32.30
2009,07,29,19,35,32.20
2009,07,29,19,36,32.20
2009,07,29,19,37,32.10
2009,07,29,19,38,32.10
2009,07,29,19,39,32.00
2009,07,29,19,40,32.00
2009,07,29,19,41,31.90
2009,07,29,19,42,31.80
2009,07,29,19,43,31.70
2009,07,29,19,44,31.70
2009,07,29,19,45,31.60
2009,07,29,19,46,31.50
2009,07,29,19,47,31.40
2009,07,29,19,48,31.40
2009,07,29,19,49,31.30
2009,07,29,19,50,31.20
2009,07,29,19,51,31.20
2009,07,29,19,52,31.20
2009,07,29,19,53,31.20
2009,07,29,19,54,31.20
2009,07,29,19,55,31.20
2009,07,29,19,56,31.20
2009,07,29,19,57,31.20
2009,07,29,19,58,31.10
2009,07,29,19,59,31.10
2009,07,29,20,00,31.00
2009,07,29,20,01,30.90
2009,07,29,20,02,30.80
2009,07,29,20,03,30.60
2009,07,29,20,04,30.50
2009,07,29,20,05,30.30
2009,07,29,20,06,30.20
2009,07,29,20,07,30.00
2009,07,29,20,08,29.90
2009,07,29,20,09,29.80
2009,07,29,20,10,29.70
2009,07,29,20,11,29.70
2009,07,29,20,12,29.60
2009,07,29,20,13,29.60
2009,07,29,20,14,29.50
2009,07,29,20,15,29.50
2009,07,29,20,16,29.50
2009,07,29,20,17,29.50
2009,07,29,20,18,29.50
2009,07,29,20,19,29.50
2009,07,29,20,20,29.50
2009,07,29,20,21,29.50
2009,07,29,20,22,29.50
2009,07,29,20,23,29.40
2009,07,29,20,24,29.40
2009,07,29,20,25,29.40
2009,07,29,20,26,29.30
2009,07,29,20,27,29.30
2009,07,29,20,28,29.20
2009,07,29,20,29,29.20
2009,07,29,20,30,29.10
2009,07,29,20,31,29.10
2009,07,29,20,32,29.00
2009,07,29,20,33,29.00
2009,07,29,20,34,28.90
2009,07,29,20,35,28.80
2009,07,29,20,36,28.80
2009,07,29,20,37,28.80
2009,07,29,20,38,28.80
2009,07,29,20,39,28.70
2009,07,29,20,40,28.70
2009,07,29,20,41,28.60
2009,07,29,20,42,28.60
2009,07,29,20,43,28.50
2009,07,29,20,44,28.40
2009,07,29,20,45,28.40
2009,07,29,20,46,28.30
2009,07,29,20,47,28.30
2009,07,29,20,48,28.20
2009,07,29,20,49,28.20
2009,07,29,20,50,28.20
2009,07,29,20,51,28.20
2009,07,29,20,52,28.10
2009,07,29,20,53,28.10
2009,07,29,20,54,28.00
2009,07,29,20,55,28.00
2009,07,29,20,56,27.90
2009,07,29,20,57,27.90
2009,07,29,20,58,27.80
2009,07,29,20,59,27.80
2009,07,29,21,00,27.70
2009,07,29,21,01,27.70
2009,07,29,21,02,27.60
2009,07,29,21,03,27.60
2009,07,29,21,04,27.50
2009,07,29,21,05,27.40
2009,07,29,21,06,27.30
2009,07,29,21,07,27.30
2009,07,29,21,08,27.20
2009,07,29,21,09,27.10
2009,07,29,21,10,27.10
2009,07,29,21,11,27.00
2009,07,29,21,12,27.00
2009,07,29,21,13,26.90
2009,07,29,21,14,26.90
2009,07,29,21,15,26.80
2009,07,29,21,16,26.80
2009,07,29,21,17,26.70
2009,07,29,21,18,26.70
2009,07,29,21,19,26.60
2009,07,29,21,20,26.50
2009,07,29,21,21,26.50
2009,07,29,21,22,26.40
2009,07,29,21,23,26.40
2009,07,29,21,24,26.30
2009,07,29,21,25,26.30
2009,07,29,21,26,26.20
2009,07,29,21,27,26.20
2009,07,29,21,28,26.10
2009,07,29,21,29,26.10
2009,07,29,21,30,26.10
2009,07,29,21,31,26.00
2009,07,29,21,32,25.90
2009,07,29,21,33,25.90
2009,07,29,21,34,25.90
2009,07,29,21,35,25.90
2009,07,29,21,36,25.80
2009,07,29,21,37,25.80
2009,07,29,21,38,25.70
2009,07,29,21,39,25.70
2009,07,29,21,40,25.70
2009,07,29,21,41,25.70
2009,07,29,21,42,25.60
2009,07,29,21,43,25.60
2009,07,29,21,44,25.50
2009,07,29,21,45,25.50
2009,07,29,21,46,25.40
2009,07,29,21,47,25.40
2009,07,29,21,48,25.40
2009,07,29,21,49,25.30
2009,07,29,21,50,25.30
2009,07,29,21,51,25.20
2009,07,29,21,52,25.20
2009,07,29,21,53,25.20
2009,07,29,21,54,25.10
2009,07,29,21,55,25.10
2009,07,29,21,56,25.10
2009,07,29,21,57,25.00
2009,07,29,21,58,25.00
2009,07,29,21,59,24.90
2009,07,29,22,00,24.90
2009,07,29,22,01,24.90
2009,07,29,22,02,24.90
2009,07,29,22,03,24.90
2009,07,29,22,04,24.80
2009,07,29,22,05,24.80
2009,07,29,22,06,24.80
2009,07,29,22,07,24.80
2009,07,29,22,08,24.80
2009,07,29,22,09,24.80
2009,07,29,22,10,24.80
2009,07,29,22,11,24.70
2009,07,29,22,12,24.80
2009,07,29,22,13,24.70
2009,07,29,22,14,24.70
2009,07,29,22,15,24.70
2009,07,29,22,16,24.70
2009,07,29,22,17,24.70
2009,07,29,22,18,24.70
2009,07,29,22,19,24.70
2009,07,29,22,20,24.70
2009,07,29,22,21,24.70
2009,07,29,22,22,24.70
2009,07,29,22,23,24.70
2009,07,29,22,24,24.60
2009,07,29,22,25,24.60
2009,07,29,22,26,24.60
2009,07,29,22,27,24.60
2009,07,29,22,28,24.50
2009,07,29,22,29,24.50
2009,07,29,22,30,24.40
2009,07,29,22,31,24.40
2009,07,29,22,32,24.40
2009,07,29,22,33,24.40
2009,07,29,22,34,24.30
2009,07,29,22,35,24.30
2009,07,29,22,36,24.30
2009,07,29,22,37,24.30
2009,07,29,22,38,24.30
2009,07,29,22,39,24.30
2009,07,29,22,40,24.30
2009,07,29,22,41,24.30
2009,07,29,22,42,24.30
2009,07,29,22,43,24.30
2009,07,29,22,44,24.30
2009,07,29,22,45,24.30
